| time (UTC) | temp C | wind direction | speed KPH | gust KPH | rain 1hr cm | rain 24hr cm | rain mn cm | humidity % | barometer mb |
| 20260507132905 | 16 | 166 | 4.8 | 16.1 | 0.00 | 0.03 | 0.00 | 48 | 1016.1 |
| 20260507132405 | 16 | 173 | 6.4 | 14.5 | 0.00 | 0.03 | 0.00 | 47 | 1016.1 |
| 20260507131906 | 16 | 165 | 6.4 | 16.1 | 0.00 | 0.03 | 0.00 | 49 | 1016.0 |
| 20260507131405 | 16 | 64 | 4.8 | 16.1 | 0.00 | 0.03 | 0.00 | 52 | 1016.0 |
| 20260507130905 | 16 | 140 | 6.4 | 19.3 | 0.00 | 0.03 | 0.00 | 51 | 1016.0 |
| 20260507125904 | 15 | 111 | 6.4 | 19.3 | 0.00 | 0.03 | 0.00 | 53 | 1016.1 |
| 20260507125405 | 15 | 135 | 3.2 | 14.5 | 0.00 | 0.03 | 0.00 | 55 | 1016.0 |
| 20260507124905 | 14 | 153 | 1.6 | 11.3 | 0.00 | 0.03 | 0.00 | 58 | 1016.0 |
| 20260507124406 | 13 | 160 | 3.2 | 11.3 | 0.00 | 0.03 | 0.00 | 56 | 1016.0 |
| 20260507123905 | 13 | 156 | 3.2 | 11.3 | 0.00 | 0.03 | 0.00 | 58 | 1016.0 |
| 20260507123405 | 13 | 135 | 3.2 | 11.3 | 0.00 | 0.03 | 0.00 | 57 | 1016.1 |
| 20260507122904 | 13 | 183 | 4.8 | 11.3 | 0.00 | 0.03 | 0.00 | 56 | 1016.2 |
| 20260507121904 | 14 | 150 | 4.8 | 12.9 | 0.00 | 0.03 | 0.00 | 56 | 1016.2 |
| 20260507121404 | 15 | 150 | 6.4 | 12.9 | 0.00 | 0.03 | 0.00 | 55 | 1016.3 |
| 20260507120905 | 15 | 132 | 4.8 | 12.9 | 0.00 | 0.03 | 0.00 | 54 | 1016.3 |
| 20260507120404 | 15 | 141 | 4.8 | 16.1 | 0.00 | 0.03 | 0.00 | 54 | 1016.3 |
| 20260507115905 | 16 | 129 | 4.8 | 16.1 | 0.00 | 0.03 | 0.00 | 54 | 1016.4 |
| 20260507115404 | 16 | 118 | 9.7 | 19.3 | 0.00 | 0.03 | 0.00 | 53 | 1016.4 |
| 20260507113905 | 16 | 125 | 8.0 | 19.3 | 0.00 | 0.03 | 0.00 | 51 | 1016.4 |
| 20260507113405 | 16 | 134 | 9.7 | 19.3 | 0.00 | 0.03 | 0.00 | 51 | 1016.4 |
| 20260507112405 | 16 | 96 | 8.0 | 19.3 | 0.00 | 0.03 | 0.00 | 54 | 1016.3 |
| 20260507111905 | 16 | 156 | 8.0 | 16.1 | 0.00 | 0.03 | 0.00 | 52 | 1016.4 |
| 20260507111405 | 15 | 193 | 4.8 | 12.9 | 0.00 | 0.03 | 0.00 | 56 | 1016.3 |
| 20260507110904 | 15 | 112 | 3.2 | 8.0 | 0.00 | 0.03 | 0.00 | 55 | 1016.4 |
| 20260507110405 | 15 | 186 | 3.2 | 9.7 | 0.00 | 0.03 | 0.00 | 54 | 1016.4 |
| 20260507105905 | 15 | 196 | 3.2 | 9.7 | 0.00 | 0.03 | 0.00 | 55 | 1016.4 |
| 20260507104904 | 15 | 183 | 4.8 | 16.1 | 0.00 | 0.03 | 0.00 | 53 | 1016.5 |
| 20260507104405 | 15 | 113 | 3.2 | 9.7 | 0.00 | 0.03 | 0.00 | 56 | 1016.5 |
| 20260507103905 | 15 | 145 | 3.2 | 12.9 | 0.00 | 0.03 | 0.00 | 55 | 1016.6 |
| 20260507103404 | 15 | 143 | 4.8 | 16.1 | 0.00 | 0.03 | 0.00 | 58 | 1016.7 |
| 20260507102905 | 14 | 146 | 4.8 | 16.1 | 0.00 | 0.03 | 0.00 | 59 | 1016.8 |
| 20260507102405 | 14 | 137 | 4.8 | 14.5 | 0.00 | 0.03 | 0.00 | 60 | 1016.7 |
| 20260507101905 | 14 | 155 | 6.4 | 14.5 | 0.00 | 0.03 | 0.00 | 62 | 1016.7 |
| 20260507101404 | 13 | 168 | 6.4 | 16.1 | 0.00 | 0.03 | 0.00 | 62 | 1016.7 |
| 20260507100905 | 13 | 145 | 8.0 | 16.1 | 0.00 | 0.03 | 0.00 | 64 | 1016.7 |
| 20260507100405 | 13 | 190 | 1.6 | 14.5 | 0.00 | 0.03 | 0.00 | 66 | 1016.6 |
| 20260507095904 | 13 | 96 | 8.0 | 14.5 | 0.00 | 0.03 | 0.00 | 65 | 1016.6 |
| 20260507094905 | 13 | 149 | 8.0 | 14.5 | 0.00 | 0.03 | 0.00 | 67 | 1016.9 |
| 20260507092904 | 12 | 145 | 3.2 | 19.3 | 0.00 | 0.03 | 0.00 | 70 | 1016.9 |
| 20260507092405 | 12 | 138 | 8.0 | 19.3 | 0.00 | 0.03 | 0.00 | 71 | 1016.9 |
| 20260507091905 | 11 | 170 | 4.8 | 12.9 | 0.00 | 0.03 | 0.00 | 73 | 1017.0 |
| 20260507090905 | 11 | 205 | 3.2 | 8.0 | 0.00 | 0.03 | 0.00 | 75 | 1016.9 |
| 20260507090404 | 11 | 132 | 1.6 | 9.7 | 0.00 | 0.03 | 0.00 | 76 | 1017.0 |
| 20260507085404 | 11 | 172 | 3.2 | 8.0 | 0.00 | 0.03 | 0.00 | 75 | 1017.0 |
| 20260507084905 | 11 | 171 | 3.2 | 11.3 | 0.00 | 0.03 | 0.00 | 75 | 1016.9 |
| 20260507084405 | 11 | 136 | 4.8 | 11.3 | 0.00 | 0.03 | 0.00 | 75 | 1016.9 |
| 20260507083904 | 11 | 123 | 4.8 | 11.3 | 0.00 | 0.03 | 0.00 | 77 | 1017.0 |
| 20260507082905 | 11 | 130 | 6.4 | 12.9 | 0.00 | 0.03 | 0.00 | 76 | 1017.0 |
| 20260507082404 | 11 | 114 | 1.6 | 14.5 | 0.00 | 0.03 | 0.00 | 78 | 1017.0 |
| 20260507081905 | 11 | 144 | 6.4 | 14.5 | 0.00 | 0.03 | 0.00 | 78 | 1017.1 |
| 20260507080904 | 10 | 132 | 6.4 | 12.9 | 0.00 | 0.03 | 0.00 | 81 | 1017.0 |
| 20260507080405 | 10 | 137 | 4.8 | 12.9 | 0.00 | 0.03 | 0.00 | 82 | 1017.0 |
| 20260507075405 | 9 | 171 | 3.2 | 9.7 | 0.00 | 0.03 | 0.00 | 82 | 1016.9 |
| 20260507074905 | 9 | 149 | 4.8 | 11.3 | 0.00 | 0.03 | 0.00 | 83 | 1016.8 |
| 20260507074404 | 9 | 146 | 3.2 | 11.3 | 0.00 | 0.03 | 0.00 | 83 | 1016.8 |
| 20260507073904 | 9 | 142 | 3.2 | 8.0 | 0.00 | 0.03 | 0.00 | 83 | 1016.8 |
| 20260507073405 | 9 | 186 | 3.2 | 11.3 | 0.00 | 0.03 | 0.00 | 84 | 1016.8 |
| 20260507072905 | 8 | 119 | 3.2 | 11.3 | 0.00 | 0.03 | 0.00 | 85 | 1016.8 |
| 20260507072405 | 8 | 130 | 4.8 | 11.3 | 0.00 | 0.03 | 0.00 | 86 | 1016.7 |
| 20260507071905 | 8 | 145 | 1.6 | 4.8 | 0.00 | 0.03 | 0.00 | 86 | 1016.6 |
| 20260507071404 | 8 | 107 | 1.6 | 4.8 | 0.00 | 0.03 | 0.00 | 86 | 1016.7 |
| 20260507070905 | 8 | 141 | 3.2 | 4.8 | 0.00 | 0.03 | 0.00 | 86 | 1016.7 |
| 20260507070405 | 8 | 144 | 1.6 | 4.8 | 0.00 | 0.03 | 0.00 | 87 | 1016.6 |
| 20260507065904 | 8 | 147 | 1.6 | 4.8 | 0.00 | 0.03 | 0.00 | 88 | 1016.7 |
| 20260507064905 | 7 | 111 | 1.6 | 4.8 | 0.00 | 0.03 | 0.00 | 88 | 1016.5 |
| 20260507064405 | 7 | 124 | 1.6 | 4.8 | 0.00 | 0.03 | 0.00 | 88 | 1016.6 |
| 20260507063905 | 7 | 108 | 1.6 | 4.8 | 0.00 | 0.03 | 0.00 | 89 | 1016.5 |
| 20260507063404 | 7 | 145 | 1.6 | 4.8 | 0.00 | 0.03 | 0.00 | 89 | 1016.5 |
| 20260507062904 | 7 | 79 | 0.0 | 3.2 | 0.00 | 0.03 | 0.00 | 90 | 1016.5 |
| 20260507062405 | 7 | 74 | 1.6 | 4.8 | 0.00 | 0.03 | 0.00 | 90 | 1016.4 |
| 20260507060905 | 7 | 69 | 1.6 | 9.7 | 0.00 | 0.03 | 0.00 | 89 | 1016.3 |
| 20260507060405 | 7 | 87 | 0.0 | 4.8 | 0.00 | 0.03 | 0.00 | 90 | 1016.3 |
| 20260507055905 | 7 | 67 | 1.6 | 4.8 | 0.00 | 0.03 | 0.00 | 90 | 1016.4 |
| 20260507055404 | 7 | 79 | 1.6 | 3.2 | 0.00 | 0.03 | 0.00 | 90 | 1016.3 |
| 20260507053904 | 7 | 84 | 0.0 | 1.6 | 0.00 | 0.03 | 0.00 | 89 | 1016.4 |
| 20260507053405 | 7 | 84 | 0.0 | 1.6 | 0.00 | 0.03 | 0.00 | 89 | 1016.4 |
| 20260507052904 | 7 | 84 | 0.0 | 3.2 | 0.00 | 0.03 | 0.00 | 90 | 1016.3 |
| 20260507051905 | 7 | 90 | 0.0 | 3.2 | 0.00 | 0.03 | 0.00 | 90 | 1016.2 |
| 20260507051404 | 7 | 81 | 0.0 | 3.2 | 0.00 | 0.03 | 0.00 | 90 | 1016.2 |
| 20260507050904 | 7 | 87 | 0.0 | 3.2 | 0.00 | 0.03 | 0.00 | 90 | 1016.2 |
| 20260507050404 | 7 | 87 | 0.0 | 3.2 | 0.00 | 0.03 | 0.00 | 90 | 1016.2 |
| 20260507045905 | 7 | 77 | 0.0 | 3.2 | 0.00 | 0.03 | 0.00 | 90 | 1016.2 |
| 20260507045404 | 7 | 95 | 0.0 | 3.2 | 0.00 | 0.03 | 0.00 | 90 | 1016.1 |
| 20260507044404 | 7 | 55 | 0.0 | 1.6 | 0.00 | 0.03 | 0.00 | 90 | 1016.0 |
| 20260507043905 | 7 | 18 | 0.0 | 0.0 | 0.00 | 0.03 | 0.00 | 90 | 1016.0 |
| 20260507043405 | 7 | 18 | 0.0 | 1.6 | 0.00 | 0.03 | 0.00 | 90 | 1016.0 |
| 20260507042905 | 7 | 18 | 0.0 | 1.6 | 0.00 | 0.03 | 0.00 | 90 | 1016.0 |
| 20260507042404 | 7 | 18 | 0.0 | 1.6 | 0.00 | 0.03 | 0.00 | 90 | 1016.0 |
| 20260507041405 | 7 | 18 | 0.0 | 3.2 | 0.00 | 0.03 | 0.00 | 90 | 1016.0 |
| 20260507040905 | 7 | 15 | 0.0 | 3.2 | 0.00 | 0.03 | 0.00 | 90 | 1016.0 |
| 20260507040404 | 7 | 11 | 0.0 | 4.8 | 0.00 | 0.03 | 0.00 | 90 | 1016.0 |
| 20260507035905 | 7 | 6 | 0.0 | 4.8 | 0.00 | 0.03 | 0.00 | 90 | 1016.0 |
| 20260507035404 | 7 | 24 | 1.6 | 4.8 | 0.00 | 0.03 | 0.00 | 90 | 1016.0 |
| 20260507034905 | 7 | 18 | 0.0 | 4.8 | 0.00 | 0.03 | 0.00 | 90 | 1015.9 |
| 20260507034405 | 7 | 18 | 1.6 | 4.8 | 0.00 | 0.03 | 0.00 | 90 | 1015.9 |
| 20260507033905 | 7 | 18 | 1.6 | 4.8 | 0.00 | 0.03 | 0.00 | 91 | 1015.9 |
| 20260507033404 | 7 | 20 | 1.6 | 3.2 | 0.00 | 0.03 | 0.00 | 91 | 1015.9 |
| 20260507032904 | 6 | 22 | 0.0 | 1.6 | 0.00 | 0.03 | 0.00 | 91 | 1015.9 |
| 20260507031905 | 6 | 22 | 0.0 | 3.2 | 0.00 | 0.03 | 0.00 | 90 | 1015.9 |
| 20260507031405 | 6 | 23 | 0.0 | 3.2 | 0.00 | 0.03 | 0.00 | 90 | 1015.9 |
| 20260507030904 | 6 | 29 | 1.6 | 3.2 | 0.00 | 0.03 | 0.00 | 90 | 1015.8 |
| 20260507025404 | 6 | 13 | 0.0 | 1.6 | 0.00 | 0.03 | 0.00 | 91 | 1015.9 |
| 20260507024905 | 6 | 13 | 0.0 | 4.8 | 0.00 | 0.03 | 0.00 | 91 | 1015.9 |
| 20260507024405 | 6 | 13 | 0.0 | 4.8 | 0.00 | 0.03 | 0.00 | 91 | 1015.8 |
| 20260507023405 | 6 | 5 | 0.0 | 3.2 | 0.00 | 0.03 | 0.00 | 91 | 1015.8 |
| 20260507022905 | 6 | 5 | 1.6 | 3.2 | 0.00 | 0.03 | 0.00 | 91 | 1015.8 |
| 20260507022405 | 6 | 5 | 0.0 | 3.2 | 0.00 | 0.03 | 0.00 | 91 | 1015.8 |
| 20260507021905 | 6 | 7 | 0.0 | 3.2 | 0.00 | 0.03 | 0.00 | 91 | 1015.8 |
| 20260507021404 | 6 | 12 | 1.6 | 3.2 | 0.00 | 0.03 | 0.00 | 90 | 1015.8 |
| 20260507020905 | 6 | 10 | 0.0 | 3.2 | 0.00 | 0.03 | 0.00 | 90 | 1015.8 |
| 20260507020404 | 6 | 345 | 0.0 | 3.2 | 0.00 | 0.03 | 0.00 | 90 | 1015.9 |
| 20260507015904 | 6 | 6 | 0.0 | 0.0 | 0.00 | 0.03 | 0.00 | 90 | 1015.9 |
| 20260507015405 | 6 | 6 | 0.0 | 0.0 | 0.00 | 0.03 | 0.00 | 90 | 1015.8 |
| 20260507014905 | 6 | 6 | 0.0 | 3.2 | 0.00 | 0.03 | 0.00 | 90 | 1015.9 |
| 20260507014406 | 6 | 6 | 0.0 | 3.2 | 0.00 | 0.03 | 0.00 | 90 | 1015.8 |
| 20260507013905 | 6 | 6 | 0.0 | 3.2 | 0.00 | 0.03 | 0.00 | 90 | 1015.8 |
| 20260507013405 | 6 | 6 | 0.0 | 0.0 | 0.00 | 0.03 | 0.00 | 90 | 1015.8 |
| 20260507011904 | 6 | 6 | 0.0 | 1.6 | 0.00 | 0.03 | 0.00 | 89 | 1015.9 |
| 20260507011404 | 6 | 6 | 0.0 | 1.6 | 0.00 | 0.03 | 0.00 | 88 | 1016.0 |
| 20260507010405 | 6 | 6 | 0.0 | 1.6 | 0.00 | 0.03 | 0.00 | 88 | 1015.9 |
| 20260507005905 | 6 | 6 | 0.0 | 3.2 | 0.00 | 0.03 | 0.00 | 88 | 1015.9 |
| 20260507005404 | 6 | 358 | 0.0 | 3.2 | 0.00 | 0.03 | 0.00 | 88 | 1015.9 |
| 20260507004904 | 6 | 348 | 0.0 | 3.2 | 0.00 | 0.03 | 0.00 | 87 | 1015.9 |
| 20260507004405 | 7 | 25 | 1.6 | 9.7 | 0.00 | 0.03 | 0.00 | 88 | 1015.8 |
| 20260507002904 | 7 | 75 | 1.6 | 11.3 | 0.00 | 0.03 | 0.00 | 88 | 1015.8 |
| 20260507002404 | 7 | 71 | 4.8 | 12.9 | 0.00 | 0.03 | 0.00 | 87 | 1015.8 |
| 20260507001405 | 7 | 104 | 8.0 | 14.5 | 0.00 | 0.03 | 0.00 | 88 | 1015.8 |
| 20260507000905 | 7 | 94 | 3.2 | 12.9 | 0.00 | 0.03 | 0.00 | 88 | 1016.0 |
| 20260507000406 | 7 | 102 | 4.8 | 12.9 | 0.00 | 0.03 | 0.00 | 88 | 1016.0 |
| 20260506235905 | 7 | 58 | 3.2 | 8.0 | 0.00 | 0.03 | 0.00 | 88 | 1015.9 |
| 20260506235404 | 7 | 55 | 3.2 | 8.0 | 0.00 | 0.03 | 0.00 | 88 | 1016.0 |
| 20260506234904 | 7 | 53 | 3.2 | 4.8 | 0.00 | 0.03 | 0.00 | 88 | 1016.0 |
| 20260506234405 | 7 | 61 | 1.6 | 8.0 | 0.00 | 0.03 | 0.00 | 88 | 1016.0 |
| 20260506233906 | 7 | 69 | 3.2 | 11.3 | 0.00 | 0.03 | 0.00 | 89 | 1016.1 |
| 20260506233404 | 7 | 66 | 4.8 | 11.3 | 0.00 | 0.03 | 0.00 | 89 | 1016.0 |
| 20260506232904 | 7 | 65 | 1.6 | 8.0 | 0.00 | 0.03 | 0.00 | 89 | 1016.0 |
| 20260506232405 | 7 | 62 | 3.2 | 4.8 | 0.00 | 0.03 | 0.00 | 89 | 1016.0 |
| 20260506231905 | 7 | 65 | 1.6 | 4.8 | 0.00 | 0.03 | 0.00 | 89 | 1016.1 |
| 20260506231404 | 7 | 47 | 1.6 | 4.8 | 0.00 | 0.03 | 0.00 | 89 | 1016.1 |
| 20260506230904 | 7 | 29 | 0.0 | 4.8 | 0.00 | 0.03 | 0.00 | 89 | 1016.1 |
| 20260506230404 | 7 | 41 | 1.6 | 4.8 | 0.00 | 0.03 | 0.00 | 89 | 1016.1 |
| 20260506225905 | 7 | 29 | 1.6 | 4.8 | 0.00 | 0.03 | 0.03 | 89 | 1016.2 |
| 20260506225405 | 7 | 33 | 0.0 | 3.2 | 0.00 | 0.03 | 0.03 | 89 | 1016.2 |
| 20260506224905 | 7 | 12 | 0.0 | 3.2 | 0.00 | 0.03 | 0.03 | 88 | 1016.2 |
| 20260506224404 | 7 | 54 | 1.6 | 3.2 | 0.03 | 0.03 | 0.03 | 89 | 1016.2 |
| 20260506223905 | 7 | 60 | 0.0 | 3.2 | 0.03 | 0.03 | 0.03 | 88 | 1016.2 |
| 20260506223404 | 7 | 22 | 0.0 | 3.2 | 0.03 | 0.03 | 0.03 | 88 | 1016.2 |
| 20260506222405 | 7 | 27 | 0.0 | 3.2 | 0.03 | 0.03 | 0.03 | 88 | 1016.2 |
| 20260506221904 | 7 | 15 | 0.0 | 4.8 | 0.03 | 0.03 | 0.03 | 88 | 1016.1 |
| 20260506221405 | 7 | 14 | 1.6 | 4.8 | 0.03 | 0.03 | 0.03 | 87 | 1016.2 |
| 20260506220905 | 7 | 47 | 1.6 | 4.8 | 0.03 | 0.03 | 0.03 | 87 | 1016.2 |
| 20260506220405 | 7 | 4 | 3.2 | 4.8 | 0.03 | 0.03 | 0.03 | 87 | 1016.2 |
| 20260506215904 | 7 | 46 | 1.6 | 8.0 | 0.03 | 0.03 | 0.03 | 87 | 1016.2 |
| 20260506215405 | 7 | 38 | 3.2 | 8.0 | 0.03 | 0.03 | 0.03 | 87 | 1016.1 |
| 20260506214905 | 7 | 61 | 0.0 | 4.8 | 0.03 | 0.03 | 0.03 | 87 | 1016.1 |
| 20260506214405 | 7 | 56 | 1.6 | 4.8 | 0.00 | 0.00 | 0.00 | 86 | 1016.0 |
| 20260506213904 | 8 | 43 | 0.0 | 4.8 | 0.00 | 0.00 | 0.00 | 86 | 1016.1 |
| 20260506213405 | 8 | 49 | 0.0 | 4.8 | 0.00 | 0.00 | 0.00 | 86 | 1016.1 |
| 20260506212905 | 8 | 36 | 1.6 | 8.0 | 0.00 | 0.00 | 0.00 | 85 | 1016.2 |
| 20260506212406 | 8 | 64 | 1.6 | 8.0 | 0.00 | 0.00 | 0.00 | 84 | 1016.1 |
| 20260506211904 | 8 | 64 | 1.6 | 8.0 | 0.00 | 0.00 | 0.00 | 83 | 1016.1 |
| 20260506211404 | 8 | 58 | 3.2 | 8.0 | 0.00 | 0.00 | 0.00 | 83 | 1016.0 |
| 20260506210905 | 8 | 47 | 3.2 | 4.8 | 0.00 | 0.00 | 0.00 | 82 | 1016.0 |
| 20260506210404 | 8 | 56 | 1.6 | 9.7 | 0.00 | 0.00 | 0.00 | 81 | 1016.0 |
| 20260506205905 | 8 | 41 | 1.6 | 9.7 | 0.00 | 0.00 | 0.00 | 81 | 1015.9 |
| 20260506205404 | 8 | 73 | 3.2 | 9.7 | 0.00 | 0.00 | 0.00 | 81 | 1015.9 |
| 20260506204905 | 8 | 77 | 3.2 | 4.8 | 0.00 | 0.00 | 0.00 | 81 | 1015.9 |
| 20260506204405 | 8 | 40 | 3.2 | 9.7 | 0.00 | 0.00 | 0.00 | 81 | 1015.9 |
| 20260506203404 | 8 | 45 | 3.2 | 9.7 | 0.00 | 0.00 | 0.00 | 81 | 1015.7 |
| 20260506202905 | 8 | 49 | 1.6 | 4.8 | 0.00 | 0.00 | 0.00 | 81 | 1015.7 |
| 20260506202405 | 8 | 60 | 1.6 | 8.0 | 0.00 | 0.00 | 0.00 | 80 | 1015.7 |
| 20260506201904 | 8 | 26 | 1.6 | 11.3 | 0.00 | 0.00 | 0.00 | 80 | 1015.6 |
| 20260506201404 | 8 | 35 | 3.2 | 11.3 | 0.00 | 0.00 | 0.00 | 80 | 1015.6 |
| 20260506200905 | 8 | 58 | 0.0 | 11.3 | 0.00 | 0.00 | 0.00 | 80 | 1015.6 |
| 20260506195904 | 8 | 3 | 3.2 | 11.3 | 0.00 | 0.00 | 0.00 | 79 | 1015.5 |
| 20260506194905 | 8 | 35 | 4.8 | 19.3 | 0.00 | 0.00 | 0.00 | 79 | 1015.4 |
| 20260506194405 | 8 | 23 | 4.8 | 16.1 | 0.00 | 0.00 | 0.00 | 78 | 1015.4 |
| 20260506193904 | 8 | 28 | 4.8 | 11.3 | 0.00 | 0.00 | 0.00 | 79 | 1015.4 |
| 20260506193404 | 8 | 43 | 3.2 | 9.7 | 0.00 | 0.00 | 0.00 | 79 | 1015.4 |
| 20260506192904 | 8 | 36 | 4.8 | 9.7 | 0.00 | 0.00 | 0.00 | 78 | 1015.3 |
| 20260506191904 | 8 | 45 | 4.8 | 9.7 | 0.00 | 0.00 | 0.00 | 78 | 1015.3 |
| 20260506191404 | 8 | 34 | 3.2 | 12.9 | 0.00 | 0.00 | 0.00 | 78 | 1015.3 |
| 20260506190905 | 9 | 59 | 3.2 | 19.3 | 0.00 | 0.00 | 0.00 | 78 | 1015.4 |
| 20260506185904 | 9 | 37 | 6.4 | 16.1 | 0.00 | 0.00 | 0.00 | 77 | 1015.4 |
| 20260506185404 | 9 | 22 | 4.8 | 16.1 | 0.00 | 0.00 | 0.00 | 77 | 1015.3 |
| 20260506184904 | 9 | 36 | 3.2 | 16.1 | 0.00 | 0.00 | 0.00 | 76 | 1015.3 |
| 20260506184405 | 9 | 28 | 6.4 | 16.1 | 0.00 | 0.00 | 0.00 | 76 | 1015.2 |
| 20260506183904 | 10 | 6 | 4.8 | 12.9 | 0.00 | 0.00 | 0.00 | 76 | 1015.2 |
| 20260506183404 | 10 | 40 | 4.8 | 12.9 | 0.00 | 0.00 | 0.00 | 76 | 1015.1 |
| 20260506182904 | 10 | 16 | 3.2 | 14.5 | 0.00 | 0.00 | 0.00 | 76 | 1015.1 |
| 20260506182405 | 10 | 5 | 4.8 | 14.5 | 0.00 | 0.00 | 0.00 | 76 | 1015.1 |
| 20260506181905 | 10 | 27 | 4.8 | 14.5 | 0.00 | 0.00 | 0.00 | 76 | 1015.0 |
| 20260506181404 | 10 | 62 | 4.8 | 14.5 | 0.00 | 0.00 | 0.00 | 75 | 1014.9 |
| 20260506180905 | 10 | 23 | 4.8 | 14.5 | 0.00 | 0.00 | 0.00 | 74 | 1014.9 |
| 20260506180404 | 10 | 18 | 4.8 | 16.1 | 0.00 | 0.00 | 0.00 | 74 | 1014.8 |
| 20260506175905 | 10 | 25 | 4.8 | 16.1 | 0.00 | 0.00 | 0.00 | 74 | 1014.8 |
| 20260506175404 | 10 | 29 | 8.0 | 16.1 | 0.00 | 0.00 | 0.00 | 73 | 1014.7 |
| 20260506174905 | 10 | 44 | 4.8 | 16.1 | 0.00 | 0.00 | 0.00 | 73 | 1014.7 |
| 20260506174405 | 11 | 42 | 4.8 | 16.1 | 0.00 | 0.00 | 0.00 | 73 | 1014.7 |
| 20260506173904 | 11 | 26 | 8.0 | 19.3 | 0.00 | 0.00 | 0.00 | 73 | 1014.7 |
| 20260506173404 | 11 | 35 | 4.8 | 19.3 | 0.00 | 0.00 | 0.00 | 72 | 1014.7 |
| 20260506172905 | 11 | 30 | 4.8 | 16.1 | 0.00 | 0.00 | 0.00 | 73 | 1014.7 |
| 20260506172404 | 11 | 18 | 4.8 | 16.1 | 0.00 | 0.00 | 0.00 | 72 | 1014.6 |
| 20260506171905 | 11 | 28 | 6.4 | 19.3 | 0.00 | 0.00 | 0.00 | 71 | 1014.6 |
| 20260506171406 | 11 | 44 | 6.4 | 20.9 | 0.00 | 0.00 | 0.00 | 70 | 1014.6 |
| 20260506170904 | 11 | 39 | 6.4 | 20.9 | 0.00 | 0.00 | 0.00 | 70 | 1014.6 |
| 20260506170405 | 11 | 22 | 4.8 | 16.1 | 0.00 | 0.00 | 0.00 | 69 | 1014.7 |
| 20260506165904 | 12 | 26 | 8.0 | 16.1 | 0.00 | 0.00 | 0.00 | 69 | 1014.6 |
| 20260506165404 | 12 | 19 | 6.4 | 19.3 | 0.00 | 0.00 | 0.00 | 69 | 1014.6 |
| 20260506164904 | 12 | 23 | 8.0 | 19.3 | 0.00 | 0.00 | 0.00 | 68 | 1014.5 |
| 20260506164405 | 12 | 40 | 8.0 | 19.3 | 0.00 | 0.00 | 0.00 | 68 | 1014.5 |
| 20260506163904 | 12 | 14 | 3.2 | 19.3 | 0.00 | 0.00 | 0.00 | 67 | 1014.4 |
| 20260506163404 | 12 | 59 | 4.8 | 16.1 | 0.00 | 0.00 | 0.00 | 66 | 1014.4 |
| 20260506162905 | 12 | 54 | 4.8 | 16.1 | 0.00 | 0.00 | 0.00 | 66 | 1014.5 |
| 20260506161904 | 12 | 76 | 4.8 | 14.5 | 0.00 | 0.00 | 0.00 | 65 | 1014.4 |
| 20260506161404 | 12 | 75 | 6.4 | 19.3 | 0.00 | 0.00 | 0.00 | 65 | 1014.4 |
| 20260506160904 | 12 | 60 | 4.8 | 19.3 | 0.00 | 0.00 | 0.00 | 66 | 1014.4 |
| 20260506160404 | 13 | 16 | 4.8 | 14.5 | 0.00 | 0.00 | 0.00 | 65 | 1014.4 |
| 20260506155904 | 13 | 27 | 4.8 | 14.5 | 0.00 | 0.00 | 0.00 | 65 | 1014.4 |
| 20260506155405 | 13 | 28 | 4.8 | 16.1 | 0.00 | 0.00 | 0.00 | 65 | 1014.4 |
| 20260506154904 | 13 | 21 | 6.4 | 16.1 | 0.00 | 0.00 | 0.00 | 64 | 1014.4 |
| 20260506154404 | 13 | 38 | 4.8 | 14.5 | 0.00 | 0.00 | 0.00 | 63 | 1014.4 |
| 20260506153904 | 13 | 56 | 4.8 | 14.5 | 0.00 | 0.00 | 0.00 | 63 | 1014.4 |
| 20260506153404 | 13 | 17 | 4.8 | 14.5 | 0.00 | 0.00 | 0.00 | 63 | 1014.4 |
| 20260506152905 | 13 | 48 | 6.4 | 14.5 | 0.00 | 0.00 | 0.00 | 61 | 1014.4 |
| 20260506152404 | 13 | 36 | 4.8 | 14.5 | 0.00 | 0.00 | 0.00 | 61 | 1014.3 |
| 20260506151904 | 13 | 57 | 4.8 | 12.9 | 0.00 | 0.00 | 0.00 | 61 | 1014.3 |
| 20260506151404 | 13 | 29 | 3.2 | 12.9 | 0.00 | 0.00 | 0.00 | 62 | 1014.3 |
| 20260506150404 | 13 | 43 | 4.8 | 16.1 | 0.00 | 0.00 | 0.00 | 61 | 1014.4 |
| 20260506145405 | 13 | 17 | 6.4 | 19.3 | 0.00 | 0.00 | 0.00 | 60 | 1014.3 |
| 20260506144904 | 13 | 28 | 3.2 | 19.3 | 0.00 | 0.00 | 0.00 | 59 | 1014.3 |
| 20260506144404 | 13 | 6 | 4.8 | 19.3 | 0.00 | 0.00 | 0.00 | 57 | 1014.3 |
| 20260506143405 | 14 | 25 | 4.8 | 19.3 | 0.00 | 0.00 | 0.00 | 56 | 1014.3 |
| 20260506142905 | 15 | 78 | 4.8 | 19.3 | 0.00 | 0.00 | 0.00 | 55 | 1014.2 |
| 20260506141905 | 15 | 355 | 4.8 | 16.1 | 0.00 | 0.00 | 0.00 | 54 | 1014.2 |
| 20260506140904 | 15 | 9 | 8.0 | 19.3 | 0.00 | 0.00 | 0.00 | 52 | 1014.3 |
| 20260506140405 | 15 | 61 | 4.8 | 19.3 | 0.00 | 0.00 | 0.00 | 51 | 1014.3 |
| 20260506135904 | 15 | 355 | 4.8 | 14.5 | 0.00 | 0.00 | 0.00 | 52 | 1014.3 |
| 20260506134905 | 15 | 16 | 6.4 | 19.3 | 0.00 | 0.00 | 0.00 | 52 | 1014.3 |
| 20260506133904 | 16 | 12 | 8.0 | 20.9 | 0.00 | 0.00 | 0.00 | 53 | 1014.3 |